Weather in Vuhledar

Ukraine / Donetsk Region     47°46′44″N   37°14′53″E
temp.,
°C
wind,
m/s
gust,
m/s
humid.,
%
clouds,
%
prec.,
mm/h
press.,
hPa
HPBL,
m
16 may, mon
mon1600:00+10w3790100 0.3 1014169
03:00+10w398941 0.4 1014283
06:00+9wnw411905 0.0 1014341
09:00+14nw710655 0.0 10151079
12:00+17nw79455 0.0 10162161
15:00+18nw683911 0.0 10162450
18:00+17wnw57487 0.0 10162025
21:00+11wnw22668 0.0 101610
17 may, tue
tue1700:00+12w2358100 0.0 101647
03:00+11wnw3768100 0.0 1016175
06:00+10w247881 0.0 1016122
09:00+14nw47535 0.0 10151266
12:00+17wnw683959 0.0 10142466
15:00+17wnw693977 0.0 10132465
18:00+16wsw685183 0.0 1013991
21:00+12wsw336046 0.1 101232
18 may, wed
wed1800:00+11w3470100 0.1 1012101
03:00+10nne2273100 0.1 101127
06:00+10nw3874100 0.0 1011388
09:00+11nnw3567100 0.1 1011527
12:00+14nnw4642100 0.0 10111981
15:00+15nnw5638100 0.0 10112271
18:00+13n775890 0.1 10121184
21:00+8nnw61181100 0.2 1015425
19 may, thu
thu1900:00+6nw411965 0.0 1017297
03:00+6nw4109717 0.0 1018277
06:00+6nw489523 0.0 1020249
09:00+12nnw576811 0.0 1021881
12:00+14nw7855100 0.3 10221777
15:00+16nw5847100 0.3 10212093
18:00+15wnw4857100 0.0 10211214
21:00+10w377367 0.0 1022137
20 may, fri
fri2000:00+9wsw497665 0.0 1021161
03:00+9w3977100 0.0 1020206
06:00+9wnw41083100 0.0 1020337
09:00+11nw487598 0.0 1021459
12:00+12wnw3574100 0.0 1021536
15:00+15nw3565100 0.1 1020946
18:00+16wnw2562100 0.1 10181243
21:00+13s4575100 0.1 101792